Flag for U.S.A. Weather past 2 weeks in Cambridge, Massachusetts, U.S.A.

Now
62 °F

Clear.


Feels Like: 62 °F
Forecast: 55 / 76 °F
Wind: 6 mph from Northeast

Location: Logan International Airport

Current Time: Sep 5, 2015 at 12:06:59 AM

Latest Report: Sep 4, 2015 at 10:54 PM


Visibility: 10 mi

Pressure: 30.27 "Hg

Humidity: 83%

Dew point: 57 °F

Location of CambridgeLocation

Historic Weather in Cambridge — Graph

°F

Cambridge temperature yesterday

Maximum temperature yesterday: 73 °F (at 12:54 AM)
Minimum temperature yesterday: 62 °F (at 10:54 PM)
Average temperature yesterday: 67 °F

Past Weeks' High & Low Weather Summary

 TemperatureHumidityPressure
High90 °F (Sep 2, 2:54 PM)100% (Aug 20, 11:54 PM)30.27 "Hg (Aug 20, 11:54 PM)
Low62 °F (Sep 4, 10:54 PM)37% (Sep 2, 4:54 PM)29.83 "Hg (Aug 25, 5:54 PM)
Average73 °F73%30.00 "Hg
* Reported Aug 20 10:54 PM — Sep 4 10:54 PM, Cambridge, Weather by CustomWeather, © 2015

Note: Actual official high and low records may vary slightly from our data, if they occured in-between our weather recording intervals... More about our weather records

Advertising

Cambridge weather history for previous 24 hours

 ConditionsComfort  
Time TempWeatherWind HumidityBarometerVisibility
10:54 PM
Fri, Sep 4
62 °FClear.6 mph83%30.27 "Hg10 mi
9:54 PM63 °FPassing clouds.5 mph84%30.26 "Hg10 mi
8:54 PM63 °FPassing clouds.5 mph87%30.25 "Hg10 mi
7:54 PM63 °FPassing clouds.5 mph87%30.23 "Hg10 mi
6:54 PM64 °FScattered clouds.9 mph84%30.22 "Hg10 mi
5:54 PM65 °FScattered clouds.10 mph81%30.21 "Hg10 mi
4:54 PM67 °FScattered clouds.13 mph79%30.20 "Hg10 mi
3:54 PM68 °FScattered clouds.12 mph76%30.20 "Hg10 mi
2:54 PM68 °FMore clouds than sun.14 mph73%30.20 "Hg10 mi
1:54 PM68 °FMore clouds than sun.14 mph70%30.20 "Hg10 mi
12:54 PM68 °FMostly cloudy.16 mph70%30.20 "Hg10 mi
11:54 AM69 °FOvercast.16 mph66%30.19 "Hg10 mi
10:54 AM68 °FMostly cloudy.12 mph63%30.17 "Hg10 mi
9:54 AM67 °FOvercast.12 mph68%30.16 "Hg10 mi
8:54 AM67 °FOvercast.14 mph68%30.13 "Hg10 mi
7:54 AM66 °FOvercast.16 mph68%30.11 "Hg10 mi
6:54 AM66 °FMostly cloudy.14 mph70%30.09 "Hg10 mi
5:54 AM66 °FPassing clouds.14 mph73%30.05 "Hg10 mi
4:54 AM67 °FPartly cloudy.22 mph76%30.01 "Hg10 mi
3:54 AM71 °FMostly cloudy.14 mph87%29.98 "Hg7 mi
2:54 AM72 °FFog.6 mph91%29.96 "Hg6 mi
1:54 AM72 °FFog.6 mph91%29.95 "Hg5 mi
12:54 AM73 °FLight rain. Overcast.3 mph84%29.95 "Hg6 mi
Weather by CustomWeather, © 2015

See weather overviewHow to use our weather pages